Location: *
(49.9853°N, 3.5569°E)
Time: 04:18:51
(UTC+00:00)

SJ-6B - Pass Details

Date: 22 September 2019
Orbit: 509 x 583 km, 97.6° (Epoch: 15 October)

Event Time Altitude Azimuth Distance (km) Brightness Sun altitude
Exits shadow 19:46:15 13° 188° (S) 1,728 5.2 -19.7°
Maximum altitude 19:49:48 47° 261° (W) 768 3.8 -20.2°
Drops below altitude 10° 19:53:45 10° 336° (NNW) 1,876 6.2 -20.8°
Sets 19:55:57 0° 342° (NNW) 2,766 7.1 -21.1°
